Find Starlink 31180

NORAD ID: 58732 Int'l Des: 2024-005 Owner: SPXS Country: US Constellation: starlink operational
LEOCIRCULAR

リアルタイム位置

3D地球を読み込み中...

Starlink 31180について

説明を読み込み中...

次回通過

Passes for default location (London). Set your location on the main map for personalized predictions.

高度履歴

Loading altitude history...

軌道要素

1 58732U 24005E 26121.71571955 -.00001261 00000-0 -36323-4 0 9991
2 58732 43.0006 280.2677 0001626 256.8298 103.2372 15.27572044128542
Epoch: May 1, 2026 • Age: 23 hours

現在のステータス

高度 490.9 km
速度 7.62 km/s
衛星直下点 -31.83°S, 33.46°E
打ち上げ日 Jan 7, 2024
運用期間 2.3 years
タイプ internet

技術仕様

分類 Payload
質量 730.00 kg
乾燥質量 700.00 kg
総質量 730.00 kg
長さ 0.30 m
直径 4.10 m
スパン 29.00 m
形状 Box + pan
製造者 SPXS
バスタイプ Starlink V2M
フェーズステータス In Orbit
所有者/国 SPXS/US

Most Searched